Location: Bas Lanzent
(48.1360°N, 3.5871°W)
Time: 23:52:26
(UTC+00:00)

Cosmos 2016 Rocket - Pass Details

Date: 18 February 2020
Orbit: 948 x 999 km, 83.0° (Epoch: 09 April)

Event Time Altitude Azimuth Distance (km) Brightness Sun altitude
Rises 06:20:57 0° 348° (NNW) 3,667 6.8 -10.0°
Reaches altitude 10° 06:23:29 10° 344° (NNW) 2,723 6.1 -9.6°
Maximum altitude 06:29:35 59° 267° (W) 1,121 4.1 -8.6°
Drops below altitude 10° 06:35:44 10° 190° (S) 2,740 6.4 -7.5°
Sets 06:38:17 0° 186° (S) 3,690 7.1 -7.1°
